contact:dominique.lefevre@mio.osupytheas.fr, maurice.libes@osupytheas.fr, didier.mallarino@osupytheas.fr
Project:EMSO http://www.emso-fr.org/EMSO-France
Depth: 2436.0 m
Title:EMSO Ligure Ouest : Data MII capteur AQUADOPP
Date,Latitude,Longitude,X_East,Y_North,Z_Up,Amplitude_X,Amplitude_Y,Amplitude_Z,Batterie,SoundSpeed,Heading,Pitch,Roll,Pressure,TIS,Speed,Direction
, degrees North, degrees East, m.s-1, m.s-1,m.s-1, 1, 1, 1, Volt, m.s-1, degree, degree, degree, dbar, degree_C, m.s-1, degree
2020-07-05T00:04:03,42.805,6.029,0.009,-0.022,-0.033,104.0,107.0,101.0,13.3,1505.3,324.8,-0.7,1.9,2470.334,13.31,0.023,157.8
2020-07-05T00:07:03,42.805,6.029,-0.009,-0.031,-0.032,104.0,108.0,101.0,13.4,1505.3,325.9,-0.7,1.8,2470.307,13.31,0.032,196.2
2020-07-05T00:10:03,42.805,6.029,0.004,-0.026,0.0,104.0,107.0,101.0,13.4,1505.3,326.5,-0.7,1.8,2470.333,13.32,0.026,171.3
2020-07-05T00:13:03,42.805,6.029,0.0,-0.03,-0.025,104.0,106.0,100.0,13.3,1505.3,327.6,-0.7,1.8,2470.336,13.32,0.03,180.0
2020-07-05T00:16:03,42.805,6.029,-0.004,-0.017,-0.042,105.0,107.0,102.0,13.3,1505.3,325.9,-0.7,1.8,2470.271,13.32,0.017,193.2
2020-07-05T00:19:03,42.805,6.029,-0.004,-0.021,-0.022,104.0,108.0,101.0,13.4,1505.3,328.4,-0.7,1.8,2470.323,13.32,0.021,190.8
2020-07-05T00:22:03,42.805,6.029,0.013,-0.035,-0.007,102.0,107.0,102.0,13.4,1505.3,324.1,-0.7,1.8,2470.296,13.33,0.037,159.6
2020-07-05T00:25:03,42.805,6.029,0.004,-0.02,-0.009,105.0,106.0,101.0,13.4,1505.3,324.2,-0.7,1.8,2470.286,13.33,0.02,168.7
2020-07-05T00:28:03,42.805,6.029,-0.018,-0.02,0.01,103.0,107.0,101.0,13.4,1505.3,327.5,-0.7,1.8,2470.323,13.33,0.026,222.0
2020-07-05T00:31:03,42.805,6.029,0.002,-0.036,-0.021,105.0,105.0,101.0,13.4,1505.3,323.6,-0.7,1.9,2470.276,13.33,0.036,176.8
2020-07-05T00:34:03,42.805,6.029,-0.007,-0.029,-0.031,104.0,106.0,101.0,13.3,1505.3,326.3,-0.7,1.8,2470.27,13.33,0.029,193.6
2020-07-05T00:37:03,42.805,6.029,0.016,-0.016,0.019,105.0,106.0,102.0,13.4,1505.3,325.0,-0.7,1.9,2470.307,13.33,0.022,135.0
2020-07-05T00:40:03,42.805,6.029,0.01,-0.02,-0.015,105.0,108.0,102.0,13.4,1505.3,327.4,-0.7,1.8,2470.304,13.33,0.022,153.4
2020-07-05T00:43:03,42.805,6.029,-0.009,-0.026,-0.024,104.0,107.0,101.0,13.4,1505.3,326.2,-0.7,1.9,2470.32,13.33,0.027,199.1
2020-07-05T00:46:03,42.805,6.029,-0.033,-0.024,-0.067,104.0,108.0,102.0,13.4,1505.3,324.6,-0.7,1.8,2470.296,13.33,0.04,234.0
2020-07-05T00:49:03,42.805,6.029,-0.006,-0.046,-0.032,106.0,106.0,100.0,13.3,1505.3,327.2,-0.7,1.8,2470.217,13.33,0.046,187.4
2020-07-05T00:52:03,42.805,6.029,0.034,-0.016,0.021,105.0,106.0,101.0,13.3,1505.3,324.3,-0.7,1.8,2470.29,13.33,0.037,115.2
2020-07-05T00:55:03,42.805,6.029,0.059,-0.016,0.031,104.0,106.0,101.0,13.4,1505.3,326.4,-0.7,1.8,2470.299,13.33,0.061,105.2
2020-07-05T00:58:03,42.805,6.029,0.028,-0.031,0.04,104.0,106.0,102.0,13.3,1505.3,327.7,-0.7,1.8,2470.297,13.33,0.041,137.9
2020-07-05T01:04:03,42.805,6.029,0.004,-0.047,-0.056,106.0,109.0,102.0,13.4,1505.3,328.3,-0.8,1.8,2470.311,13.31,0.047,175.1
2020-07-05T01:07:03,42.805,6.029,0.009,-0.02,-0.023,104.0,107.0,102.0,13.4,1505.3,326.1,-0.7,1.8,2470.28,13.31,0.021,155.8
2020-07-05T01:10:03,42.805,6.029,0.023,-0.031,-0.011,104.0,107.0,102.0,13.4,1505.3,328.3,-0.7,1.8,2470.282,13.32,0.038,143.4
2020-07-05T01:16:03,42.805,6.029,0.003,-0.022,-0.014,104.0,107.0,101.0,13.4,1505.2,328.0,-0.8,1.8,2470.333,13.3,0.022,172.2
2020-07-05T01:19:03,42.805,6.029,0.015,-0.038,0.012,105.0,106.0,102.0,13.3,1505.3,325.8,-0.7,1.9,2470.298,13.31,0.04,158.5
2020-07-05T01:22:03,42.805,6.029,0.025,-0.035,-0.006,105.0,105.0,102.0,13.4,1505.3,325.9,-0.7,1.8,2470.292,13.32,0.043,144.5
2020-07-05T01:25:03,42.805,6.029,0.004,-0.016,0.019,103.0,107.0,102.0,13.3,1505.3,323.6,-0.7,1.8,2470.336,13.32,0.016,166.0
2020-07-05T01:28:03,42.805,6.029,0.008,-0.016,-0.03,105.0,106.0,101.0,13.3,1505.3,323.9,-0.7,1.9,2470.318,13.32,0.017,153.4
2020-07-05T01:31:03,42.805,6.029,-0.025,0.001,-0.019,104.0,106.0,102.0,13.4,1505.3,323.8,-0.7,1.8,2470.272,13.32,0.025,272.3
2020-07-05T01:34:03,42.805,6.029,0.001,-0.026,-0.031,105.0,106.0,102.0,13.4,1505.3,323.6,-0.7,1.8,2470.303,13.33,0.026,177.8
2020-07-05T01:37:03,42.805,6.029,0.007,-0.049,-0.023,105.0,106.0,102.0,13.4,1505.3,324.5,-0.7,1.8,2470.269,13.33,0.049,171.9
2020-07-05T01:40:03,42.805,6.029,0.044,-0.019,0.01,105.0,107.0,102.0,13.3,1505.3,325.8,-0.7,1.8,2470.252,13.33,0.047,113.4
2020-07-05T01:43:03,42.805,6.029,-0.002,-0.026,-0.047,105.0,106.0,102.0,13.3,1505.3,326.0,-0.7,1.8,2470.282,13.33,0.026,184.4
2020-07-05T01:46:03,42.805,6.029,0.047,-0.013,0.015,105.0,107.0,102.0,13.3,1505.3,326.5,-0.7,1.8,2470.301,13.33,0.048,105.5
2020-07-05T01:49:03,42.805,6.029,-0.002,-0.037,-0.054,105.0,105.0,102.0,13.4,1505.3,326.4,-0.7,1.9,2470.245,13.33,0.037,183.1
2020-07-05T01:52:03,42.805,6.029,-0.026,-0.051,-0.036,104.0,106.0,102.0,13.4,1505.3,325.0,-0.7,1.9,2470.241,13.33,0.057,207.0
2020-07-05T01:55:03,42.805,6.029,0.015,-0.031,-0.02,104.0,106.0,102.0,13.4,1505.3,325.5,-0.7,1.8,2470.296,13.33,0.034,154.2
2020-07-05T01:58:03,42.805,6.029,0.014,-0.026,0.001,104.0,105.0,102.0,13.4,1505.3,328.2,-0.7,1.8,2470.227,13.33,0.029,151.7
2020-07-05T02:04:03,42.805,6.029,0.008,-0.025,-0.016,104.0,104.0,102.0,13.3,1505.3,327.7,-0.7,1.8,2470.31,13.31,0.026,162.3
2020-07-05T02:07:03,42.805,6.029,-0.023,-0.045,-0.013,104.0,106.0,102.0,13.3,1505.3,325.3,-0.7,1.8,2470.322,13.31,0.05,207.1
2020-07-05T02:10:03,42.805,6.029,-0.011,-0.024,-0.03,104.0,104.0,101.0,13.4,1505.3,326.9,-0.7,1.8,2470.25,13.32,0.026,204.6
2020-07-05T02:13:03,42.805,6.029,-0.02,-0.017,-0.007,104.0,104.0,101.0,13.3,1505.3,327.5,-0.7,1.8,2470.242,13.32,0.026,229.6
2020-07-05T02:16:03,42.805,6.029,-0.019,-0.041,-0.037,104.0,104.0,102.0,13.3,1505.3,324.3,-0.7,1.8,2470.312,13.32,0.045,204.9
2020-07-05T02:19:03,42.805,6.029,-0.012,-0.031,-0.02,102.0,105.0,102.0,13.4,1505.3,325.3,-0.7,1.8,2470.242,13.32,0.033,201.2
2020-07-05T02:22:03,42.805,6.029,0.02,-0.018,-0.007,104.0,105.0,101.0,13.4,1505.3,328.3,-0.7,1.8,2470.272,13.32,0.026,132.0
2020-07-05T02:25:03,42.805,6.029,0.007,-0.013,-0.004,105.0,104.0,101.0,13.4,1505.3,325.9,-0.7,1.8,2470.28,13.33,0.014,151.7
2020-07-05T02:28:03,42.805,6.029,0.0,-0.04,-0.025,105.0,104.0,101.0,13.4,1505.3,324.3,-0.7,1.8,2470.254,13.33,0.04,180.0
2020-07-05T02:31:03,42.805,6.029,-0.005,-0.017,-0.007,105.0,104.0,102.0,13.3,1505.3,327.7,-0.7,1.9,2470.27,13.33,0.017,196.4
2020-07-05T02:34:03,42.805,6.029,-0.004,-0.017,0.004,104.0,105.0,102.0,13.4,1505.3,324.7,-0.7,1.8,2470.268,13.33,0.017,193.2
2020-07-05T02:37:03,42.805,6.029,0.009,-0.027,-0.013,104.0,105.0,103.0,13.4,1505.3,326.0,-0.7,1.9,2470.278,13.33,0.028,161.6
2020-07-05T02:40:03,42.805,6.029,-0.006,-0.024,-0.007,104.0,105.0,102.0,13.3,1505.3,326.0,-0.7,1.8,2470.242,13.33,0.024,194.0
2020-07-05T02:43:03,42.805,6.029,-0.004,-0.022,-0.007,104.0,105.0,101.0,13.4,1505.3,326.5,-0.7,1.8,2470.215,13.33,0.022,190.3
2020-07-05T02:49:03,42.805,6.029,0.0,-0.029,0.003,105.0,105.0,102.0,13.4,1505.3,326.2,-0.7,1.8,2470.281,13.31,0.028,180.0
2020-07-05T02:52:03,42.805,6.029,-0.002,-0.03,-0.001,105.0,104.0,103.0,13.4,1505.3,324.0,-0.7,1.8,2470.287,13.31,0.03,183.8
2020-07-05T02:55:03,42.805,6.029,0.002,-0.009,0.018,104.0,105.0,103.0,13.4,1505.3,324.3,-0.7,1.8,2470.26,13.32,0.009,167.5
2020-07-05T02:58:03,42.805,6.029,0.028,-0.019,-0.003,103.0,106.0,102.0,13.4,1505.3,325.9,-0.7,1.8,2470.297,13.32,0.033,124.2
2020-07-05T03:04:03,42.805,6.029,0.009,-0.007,-0.02,105.0,105.0,101.0,13.3,1505.3,325.6,-0.7,1.9,2470.307,13.31,0.011,127.9
2020-07-05T03:07:03,42.805,6.029,0.038,-0.014,0.0,104.0,107.0,101.0,13.4,1505.3,324.0,-0.7,1.8,2470.317,13.31,0.04,110.2
2020-07-05T03:10:03,42.805,6.029,0.011,-0.015,0.025,104.0,105.0,102.0,13.3,1505.3,327.5,-0.8,1.8,2470.28,13.32,0.018,143.7
2020-07-05T03:13:03,42.805,6.029,0.013,-0.017,0.002,105.0,105.0,101.0,13.3,1505.3,326.4,-0.7,1.8,2470.275,13.32,0.021,142.6
2020-07-05T03:16:03,42.805,6.029,0.019,0.015,0.013,104.0,106.0,101.0,13.4,1505.3,323.4,-0.7,1.8,2470.27,13.32,0.024,51.7
2020-07-05T03:19:03,42.805,6.029,-0.004,-0.022,-0.015,104.0,106.0,101.0,13.4,1505.3,325.8,-0.7,1.8,2470.27,13.33,0.022,190.3
2020-07-05T03:22:03,42.805,6.029,0.012,-0.013,0.026,105.0,105.0,102.0,13.4,1505.3,327.8,-0.7,1.8,2470.267,13.33,0.017,137.3
2020-07-05T03:25:03,42.805,6.029,-0.007,-0.029,-0.029,103.0,106.0,102.0,13.4,1505.3,326.2,-0.7,1.8,2470.285,13.33,0.029,193.6
2020-07-05T03:28:03,42.805,6.029,-0.002,-0.015,0.004,104.0,107.0,102.0,13.4,1505.3,326.4,-0.7,1.8,2470.275,13.33,0.015,187.6
2020-07-05T03:31:03,42.805,6.029,-0.006,-0.011,0.001,104.0,106.0,101.0,13.4,1505.3,323.8,-0.7,1.8,2470.285,13.33,0.012,208.6
2020-07-05T03:34:03,42.805,6.029,0.006,-0.021,-0.012,105.0,106.0,103.0,13.3,1505.3,324.7,-0.7,1.8,2470.286,13.33,0.021,164.1
2020-07-05T03:37:03,42.805,6.029,0.012,-0.015,0.007,105.0,107.0,103.0,13.4,1505.3,326.7,-0.7,1.8,2470.28,13.33,0.019,141.3
2020-07-05T03:40:03,42.805,6.029,-0.014,-0.022,0.005,105.0,107.0,101.0,13.4,1505.3,323.3,-0.7,1.8,2470.287,13.33,0.026,212.5
2020-07-05T03:43:03,42.805,6.029,-0.011,-0.02,0.006,105.0,107.0,102.0,13.4,1505.3,326.4,-0.7,1.8,2470.288,13.33,0.022,208.8
2020-07-05T03:46:03,42.805,6.029,-0.002,-0.031,-0.032,104.0,106.0,102.0,13.4,1505.3,326.6,-0.7,1.8,2470.263,13.33,0.031,183.7
2020-07-05T03:49:03,42.805,6.029,0.014,-0.011,0.024,105.0,107.0,102.0,13.4,1505.3,325.6,-0.7,1.8,2470.265,13.33,0.017,128.2
2020-07-05T03:52:03,42.805,6.029,-0.001,-0.029,-0.01,105.0,106.0,102.0,13.4,1505.3,326.1,-0.7,1.8,2470.285,13.33,0.029,182.0
2020-07-05T03:55:03,42.805,6.029,-0.009,0.001,0.02,104.0,105.0,102.0,13.4,1505.3,327.5,-0.7,1.8,2470.274,13.33,0.009,276.3
2020-07-05T03:58:03,42.805,6.029,-0.006,-0.022,-0.017,104.0,106.0,101.0,13.3,1505.3,324.7,-0.7,1.9,2470.29,13.33,0.022,195.3
2020-07-05T04:04:03,42.805,6.029,-0.023,-0.029,0.0,105.0,108.0,102.0,13.4,1505.3,325.3,-0.8,1.8,2470.327,13.31,0.037,218.4
2020-07-05T04:07:03,42.805,6.029,0.002,-0.007,-0.012,105.0,107.0,101.0,13.4,1505.3,327.8,-0.7,1.8,2470.322,13.32,0.007,164.1
2020-07-05T04:10:03,42.805,6.029,-0.005,-0.002,0.01,103.0,107.0,102.0,13.4,1505.3,326.8,-0.7,1.8,2470.327,13.33,0.005,248.2
2020-07-05T04:13:03,42.805,6.029,-0.025,-0.017,0.025,103.0,108.0,102.0,13.4,1505.3,326.1,-0.7,1.8,2470.363,13.33,0.03,235.8
2020-07-05T04:16:03,42.805,6.029,-0.014,-0.006,0.005,103.0,108.0,102.0,13.4,1505.3,326.2,-0.7,1.8,2470.307,13.33,0.015,246.8
2020-07-05T04:19:03,42.805,6.029,-0.031,-0.005,-0.039,105.0,108.0,101.0,13.4,1505.3,327.9,-0.7,1.8,2470.346,13.33,0.031,260.8
2020-07-05T04:22:03,42.805,6.029,-0.017,-0.02,-0.001,105.0,107.0,101.0,13.3,1505.3,324.5,-0.7,1.8,2470.309,13.33,0.026,220.4
2020-07-05T04:25:03,42.805,6.029,-0.013,0.0,0.008,104.0,108.0,100.0,13.3,1505.3,328.1,-0.7,1.8,2470.313,13.33,0.013,270.0
2020-07-05T04:28:03,42.805,6.029,0.0,-0.007,0.003,103.0,106.0,100.0,13.4,1505.4,325.1,-0.7,1.8,2470.33,13.34,0.007,180.0
2020-07-05T04:31:03,42.805,6.029,-0.001,-0.01,-0.011,104.0,106.0,100.0,13.3,1505.3,327.6,-0.7,1.8,2470.322,13.33,0.01,185.7
2020-07-05T04:34:03,42.805,6.029,-0.009,-0.011,-0.003,104.0,106.0,101.0,13.4,1505.3,324.0,-0.7,1.8,2470.311,13.33,0.014,219.3
2020-07-05T04:37:03,42.805,6.029,-0.031,-0.004,-0.029,104.0,105.0,102.0,13.4,1505.3,326.0,-0.7,1.8,2470.311,13.33,0.031,262.7
2020-07-05T04:40:03,42.805,6.029,-0.035,0.0,-0.032,104.0,107.0,101.0,13.3,1505.3,324.2,-0.7,1.8,2470.333,13.33,0.035,270.0
2020-07-05T04:43:03,42.805,6.029,-0.01,-0.001,0.0,104.0,107.0,103.0,13.3,1505.3,327.7,-0.7,1.8,2470.322,13.33,0.01,264.3
2020-07-05T04:46:03,42.805,6.029,-0.023,0.001,-0.006,104.0,106.0,102.0,13.3,1505.3,327.7,-0.7,1.9,2470.304,13.33,0.023,272.5
2020-07-05T04:49:03,42.805,6.029,0.0,-0.028,0.002,105.0,106.0,101.0,13.3,1505.3,327.0,-0.7,1.8,2470.325,13.33,0.028,180.0
2020-07-05T04:52:03,42.805,6.029,-0.017,-0.004,-0.013,103.0,107.0,100.0,13.3,1505.3,324.0,-0.7,1.8,2470.321,13.33,0.017,256.8
2020-07-05T04:55:03,42.805,6.029,-0.005,-0.013,0.0,104.0,106.0,101.0,13.3,1505.3,326.9,-0.7,1.8,2470.334,13.33,0.013,201.0
2020-07-05T04:58:03,42.805,6.029,-0.017,0.003,0.009,103.0,105.0,102.0,13.4,1505.3,323.9,-0.7,1.8,2470.345,13.33,0.017,280.0
2020-07-05T05:04:03,42.805,6.029,-0.003,-0.026,-0.006,104.0,106.0,102.0,13.4,1505.3,327.5,-0.8,1.8,2470.348,13.31,0.026,186.6
2020-07-05T05:07:03,42.805,6.029,-0.003,-0.02,-0.012,104.0,105.0,101.0,13.4,1505.3,325.4,-0.8,1.8,2470.381,13.32,0.02,188.5
2020-07-05T05:10:03,42.805,6.029,-0.035,-0.006,-0.067,105.0,106.0,101.0,13.4,1505.3,323.0,-0.7,1.8,2470.363,13.33,0.035,260.3
2020-07-05T05:13:03,42.805,6.029,0.0,-0.021,-0.044,104.0,106.0,101.0,13.4,1505.3,326.4,-0.7,1.8,2470.363,13.33,0.021,180.0
2020-07-05T05:16:03,42.805,6.029,0.017,-0.01,0.007,104.0,106.0,100.0,13.4,1505.3,323.8,-0.7,1.8,2470.356,13.33,0.019,120.5
2020-07-05T05:19:03,42.805,6.029,-0.015,-0.003,-0.009,104.0,108.0,100.0,13.4,1505.4,324.3,-0.7,1.8,2470.342,13.34,0.015,258.7
2020-07-05T05:22:03,42.805,6.029,-0.01,-0.026,0.01,103.0,107.0,102.0,13.4,1505.4,328.5,-0.7,1.8,2470.356,13.34,0.027,201.0
2020-07-05T05:25:03,42.805,6.029,-0.032,-0.013,-0.031,104.0,107.0,101.0,13.4,1505.4,326.0,-0.7,1.8,2470.337,13.34,0.034,247.9
2020-07-05T05:28:03,42.805,6.029,-0.02,-0.005,-0.014,105.0,107.0,101.0,13.4,1505.4,323.2,-0.7,1.8,2470.354,13.34,0.02,256.0
2020-07-05T05:31:03,42.805,6.029,-0.031,-0.017,-0.034,104.0,106.0,103.0,13.4,1505.4,326.4,-0.7,1.8,2470.327,13.34,0.035,241.3
2020-07-05T05:34:03,42.805,6.029,-0.031,-0.015,-0.024,104.0,107.0,101.0,13.3,1505.4,324.6,-0.7,1.8,2470.365,13.34,0.034,244.2
2020-07-05T05:37:03,42.805,6.029,0.0,-0.007,-0.016,105.0,108.0,101.0,13.4,1505.4,328.2,-0.7,1.8,2470.395,13.34,0.007,180.0
2020-07-05T05:40:03,42.805,6.029,-0.005,-0.012,-0.017,106.0,107.0,101.0,13.4,1505.4,326.4,-0.7,1.9,2470.363,13.34,0.013,202.6
2020-07-05T05:43:03,42.805,6.029,-0.03,-0.005,-0.018,104.0,108.0,103.0,13.4,1505.4,326.6,-0.7,1.8,2470.385,13.34,0.03,260.5
2020-07-05T05:46:03,42.805,6.029,-0.023,-0.002,-0.029,105.0,109.0,102.0,13.4,1505.4,325.8,-0.7,1.8,2470.38,13.34,0.023,265.0
2020-07-05T05:49:03,42.805,6.029,-0.005,-0.021,-0.018,105.0,108.0,101.0,13.4,1505.4,323.2,-0.7,1.9,2470.379,13.34,0.021,193.4
2020-07-05T05:52:03,42.805,6.029,-0.007,-0.014,0.005,105.0,108.0,103.0,13.4,1505.4,326.9,-0.7,1.8,2470.37,13.34,0.015,206.6
2020-07-05T05:55:03,42.805,6.029,-0.038,-0.001,-0.048,106.0,108.0,101.0,13.4,1505.4,325.5,-0.7,1.8,2470.325,13.34,0.038,268.5
2020-07-05T05:58:03,42.805,6.029,-0.046,-0.013,-0.028,107.0,108.0,101.0,13.4,1505.4,323.3,-0.7,1.8,2470.413,13.34,0.047,254.2
2020-07-05T06:04:03,42.805,6.029,-0.04,-0.007,-0.025,104.0,108.0,102.0,13.4,1505.3,324.3,-0.7,1.8,2470.441,13.32,0.04,260.1
2020-07-05T06:07:03,42.805,6.029,0.002,0.003,-0.008,104.0,108.0,100.0,13.4,1505.3,327.6,-0.7,1.8,2470.407,13.33,0.003,33.7
2020-07-05T06:10:03,42.805,6.029,-0.008,-0.021,-0.003,105.0,109.0,102.0,13.4,1505.3,323.7,-0.7,1.9,2470.429,13.33,0.022,200.9
2020-07-05T06:13:03,42.805,6.029,-0.041,-0.023,-0.029,105.0,108.0,103.0,13.3,1505.3,325.4,-0.7,1.8,2470.412,13.33,0.047,240.7
2020-07-05T06:16:03,42.805,6.029,-0.015,-0.013,0.012,105.0,107.0,102.0,13.4,1505.4,324.5,-0.7,1.8,2470.353,13.34,0.019,229.1
2020-07-05T06:19:03,42.805,6.029,0.004,-0.008,0.008,107.0,108.0,102.0,13.3,1505.4,327.5,-0.7,1.8,2470.355,13.34,0.008,153.4
2020-07-05T06:22:03,42.805,6.029,0.024,-0.007,0.007,104.0,109.0,102.0,13.3,1505.4,327.9,-0.7,1.8,2470.39,13.34,0.025,106.3
2020-07-05T06:25:03,42.805,6.029,0.002,-0.018,-0.012,105.0,108.0,101.0,13.3,1505.4,327.1,-0.7,1.8,2470.412,13.34,0.018,173.7
2020-07-05T06:28:03,42.805,6.029,0.008,-0.013,0.033,103.0,108.0,103.0,13.4,1505.4,324.9,-0.7,1.8,2470.416,13.34,0.015,148.4
2020-07-05T06:31:03,42.805,6.029,-0.018,-0.004,-0.021,105.0,107.0,103.0,13.4,1505.4,325.4,-0.7,1.8,2470.388,13.34,0.018,257.5
2020-07-05T06:34:03,42.805,6.029,0.007,0.004,0.002,105.0,107.0,100.0,13.4,1505.4,327.4,-0.7,1.8,2470.36,13.34,0.008,60.3
2020-07-05T06:37:03,42.805,6.029,0.046,0.005,0.027,104.0,108.0,101.0,13.4,1505.4,326.3,-0.7,1.8,2470.445,13.34,0.046,83.8
2020-07-05T06:40:03,42.805,6.029,-0.014,-0.009,-0.023,105.0,108.0,103.0,13.4,1505.4,328.2,-0.7,1.8,2470.356,13.34,0.016,237.3
2020-07-05T06:43:03,42.805,6.029,0.054,0.0,0.042,105.0,107.0,102.0,13.4,1505.4,325.3,-0.7,1.8,2470.366,13.34,0.053,90.0
2020-07-05T06:46:03,42.805,6.029,0.013,0.004,0.03,105.0,108.0,101.0,13.4,1505.4,324.3,-0.7,1.8,2470.389,13.34,0.013,72.9
2020-07-05T06:49:03,42.805,6.029,0.007,-0.031,-0.004,104.0,107.0,101.0,13.4,1505.4,326.2,-0.7,1.8,2470.372,13.34,0.031,167.3
2020-07-05T06:52:03,42.805,6.029,0.013,-0.023,0.026,103.0,108.0,102.0,13.4,1505.4,323.4,-0.7,1.8,2470.37,13.34,0.026,150.5
2020-07-05T06:55:03,42.805,6.029,0.014,-0.024,0.008,106.0,107.0,102.0,13.4,1505.4,325.7,-0.7,1.8,2470.41,13.34,0.027,149.7
2020-07-05T06:58:03,42.805,6.029,0.026,-0.019,0.002,104.0,108.0,102.0,13.4,1505.4,326.6,-0.7,1.9,2470.404,13.34,0.032,126.2
2020-07-05T07:04:03,42.805,6.029,0.009,0.009,-0.002,105.0,108.0,102.0,13.4,1505.3,326.4,-0.7,1.8,2470.415,13.32,0.012,45.0
2020-07-05T07:07:03,42.805,6.029,0.0,-0.007,0.009,105.0,108.0,101.0,13.3,1505.3,326.4,-0.7,1.8,2470.404,13.33,0.007,180.0
2020-07-05T07:10:03,42.805,6.029,0.019,0.003,-0.007,104.0,108.0,102.0,13.3,1505.4,323.6,-0.7,1.8,2470.4,13.34,0.019,81.0
2020-07-05T07:13:03,42.805,6.029,-0.01,-0.025,-0.021,105.0,110.0,100.0,13.3,1505.4,326.5,-0.7,1.8,2470.38,13.34,0.026,201.8
2020-07-05T07:16:03,42.805,6.029,0.017,-0.011,0.012,104.0,107.0,101.0,13.3,1505.4,326.3,-0.7,1.8,2470.405,13.34,0.02,122.9
2020-07-05T07:19:03,42.805,6.029,-0.025,-0.006,-0.005,107.0,106.0,100.0,13.3,1505.4,326.7,-0.7,1.8,2470.391,13.34,0.025,256.5
2020-07-05T07:22:03,42.805,6.029,-0.002,-0.004,-0.026,103.0,107.0,102.0,13.3,1505.4,326.0,-0.7,1.8,2470.402,13.34,0.004,206.6
2020-07-05T07:25:03,42.805,6.029,-0.007,-0.01,0.012,105.0,106.0,101.0,13.4,1505.4,323.9,-0.7,1.8,2470.375,13.34,0.012,215.0
2020-07-05T07:28:03,42.805,6.029,-0.026,-0.009,-0.025,105.0,106.0,102.0,13.4,1505.4,326.2,-0.7,1.9,2470.339,13.34,0.027,250.9
2020-07-05T07:31:03,42.805,6.029,-0.022,-0.014,-0.012,103.0,109.0,102.0,13.4,1505.4,328.4,-0.7,1.8,2470.389,13.34,0.026,237.5
2020-07-05T07:34:03,42.805,6.029,0.006,0.015,-0.007,103.0,117.0,102.0,13.4,1505.4,325.4,-0.7,1.8,2470.409,13.35,0.016,21.8
2020-07-05T07:37:03,42.805,6.029,-0.004,-0.011,-0.026,104.0,107.0,101.0,13.4,1505.4,327.5,-0.7,1.8,2470.351,13.35,0.011,200.0
2020-07-05T07:40:03,42.805,6.029,-0.01,0.004,0.013,105.0,108.0,100.0,13.4,1505.4,323.6,-0.7,1.8,2470.361,13.35,0.01,291.8
2020-07-05T07:43:03,42.805,6.029,-0.04,-0.014,-0.005,103.0,107.0,101.0,13.3,1505.4,324.2,-0.7,1.8,2470.355,13.35,0.042,250.7
2020-07-05T07:46:03,42.805,6.029,0.013,0.013,0.0,104.0,105.0,101.0,13.4,1505.4,328.2,-0.7,1.8,2470.335,13.35,0.018,45.0
2020-07-05T07:49:03,42.805,6.029,-0.006,0.006,-0.005,104.0,107.0,102.0,13.4,1505.4,327.4,-0.7,1.8,2470.377,13.35,0.008,315.0
2020-07-05T07:52:03,42.805,6.029,-0.016,-0.012,-0.008,104.0,107.0,100.0,13.4,1505.4,328.5,-0.7,1.8,2470.343,13.35,0.02,233.1
2020-07-05T07:55:03,42.805,6.029,-0.045,-0.007,-0.064,103.0,107.0,102.0,13.4,1505.4,327.3,-0.7,1.8,2470.324,13.35,0.045,261.2
2020-07-05T07:58:03,42.805,6.029,-0.035,-0.004,0.002,103.0,106.0,101.0,13.4,1505.4,324.9,-0.7,1.8,2470.367,13.35,0.035,263.5
2020-07-05T08:04:03,42.805,6.029,-0.002,0.015,-0.005,103.0,106.0,102.0,13.4,1505.3,323.2,-0.7,1.8,2470.397,13.33,0.015,352.4
2020-07-05T08:07:03,42.805,6.029,-0.014,-0.01,-0.004,103.0,108.0,100.0,13.4,1505.3,326.1,-0.7,1.9,2470.355,13.33,0.017,234.5
2020-07-05T08:10:03,42.805,6.029,-0.014,0.0,-0.044,105.0,106.0,102.0,13.4,1505.4,327.3,-0.7,1.9,2470.355,13.34,0.014,270.0
2020-07-05T08:13:03,42.805,6.029,-0.027,-0.015,-0.045,102.0,107.0,101.0,13.4,1505.4,323.9,-0.7,1.8,2470.394,13.34,0.03,240.9
2020-07-05T08:16:03,42.805,6.029,-0.018,-0.008,-0.008,103.0,107.0,100.0,13.4,1505.4,323.9,-0.7,1.8,2470.375,13.34,0.019,246.0
2020-07-05T08:19:03,42.805,6.029,-0.009,0.001,-0.019,104.0,110.0,101.0,13.4,1505.4,326.1,-0.7,1.8,2470.335,13.34,0.009,276.3
2020-07-05T08:22:03,42.805,6.029,-0.015,-0.008,-0.011,104.0,109.0,102.0,13.3,1505.4,325.2,-0.7,1.8,2470.378,13.34,0.017,241.9
2020-07-05T08:25:03,42.805,6.029,-0.008,-0.009,-0.024,104.0,107.0,101.0,13.4,1505.4,325.1,-0.7,1.8,2470.322,13.35,0.012,221.6
2020-07-05T08:28:03,42.805,6.029,0.002,0.0,0.025,106.0,108.0,103.0,13.4,1505.4,325.2,-0.7,1.8,2470.352,13.35,0.002,90.0
2020-07-05T08:31:03,42.805,6.029,0.034,-0.015,-0.004,104.0,107.0,103.0,13.4,1505.4,324.3,-0.7,1.8,2470.334,13.35,0.037,113.8
2020-07-05T08:34:03,42.805,6.029,-0.002,-0.004,-0.015,104.0,108.0,101.0,13.3,1505.4,326.1,-0.7,1.8,2470.355,13.35,0.004,206.6
2020-07-05T08:37:03,42.805,6.029,-0.006,-0.003,-0.006,106.0,107.0,102.0,13.4,1505.4,323.2,-0.7,1.8,2470.381,13.35,0.006,243.4
2020-07-05T08:40:03,42.805,6.029,0.033,0.008,0.037,106.0,106.0,102.0,13.4,1505.4,324.3,-0.7,1.8,2470.323,13.35,0.033,76.4
2020-07-05T08:43:03,42.805,6.029,0.023,-0.003,-0.002,103.0,107.0,101.0,13.4,1505.4,323.3,-0.7,1.8,2470.311,13.35,0.023,97.4
2020-07-05T08:46:03,42.805,6.029,-0.012,0.016,0.0,104.0,107.0,102.0,13.3,1505.4,324.6,-0.7,1.8,2470.305,13.35,0.02,323.1
2020-07-05T08:49:03,42.805,6.029,0.025,0.006,0.022,108.0,107.0,102.0,13.4,1505.4,325.1,-0.7,1.8,2470.359,13.35,0.025,76.5
2020-07-05T08:52:03,42.805,6.029,0.043,-0.009,0.037,103.0,106.0,100.0,13.4,1505.4,325.9,-0.7,1.8,2470.338,13.35,0.043,101.8
2020-07-05T08:55:03,42.805,6.029,0.03,0.005,0.031,104.0,109.0,101.0,13.4,1505.4,327.2,-0.7,1.8,2470.331,13.35,0.03,80.5
2020-07-05T08:58:03,42.805,6.029,0.039,0.012,0.001,105.0,107.0,101.0,13.4,1505.4,327.0,-0.7,1.9,2470.302,13.35,0.04,72.9
2020-07-05T09:04:03,42.805,6.029,0.039,-0.006,0.033,106.0,106.0,102.0,13.4,1505.3,324.8,-0.7,1.8,2470.352,13.33,0.039,98.7
2020-07-05T09:07:03,42.805,6.029,0.018,0.005,0.036,105.0,107.0,102.0,13.3,1505.4,326.1,-0.7,1.8,2470.368,13.34,0.018,74.5
2020-07-05T09:10:03,42.805,6.029,0.008,0.002,0.013,104.0,107.0,103.0,13.4,1505.4,326.1,-0.7,1.8,2470.37,13.34,0.008,76.0
2020-07-05T09:13:03,42.805,6.029,0.028,0.002,0.009,105.0,108.0,101.0,13.4,1505.4,326.8,-0.7,1.8,2470.285,13.34,0.028,85.9
2020-07-05T09:16:03,42.805,6.029,0.031,0.0,0.015,105.0,107.0,101.0,13.4,1505.4,324.9,-0.7,1.8,2470.305,13.34,0.03,90.0
2020-07-05T09:19:03,42.805,6.029,0.064,-0.016,0.025,104.0,107.0,102.0,13.4,1505.4,326.1,-0.7,1.8,2470.35,13.35,0.065,104.0
2020-07-05T09:22:03,42.805,6.029,0.026,0.01,0.023,104.0,107.0,100.0,13.4,1505.4,326.9,-0.7,1.8,2470.297,13.35,0.027,69.0
2020-07-05T09:25:03,42.805,6.029,0.038,0.002,0.056,103.0,106.0,100.0,13.3,1505.4,324.7,-0.7,1.8,2470.343,13.35,0.038,87.0
2020-07-05T09:28:03,42.805,6.029,0.038,0.007,0.042,104.0,109.0,101.0,13.4,1505.4,324.8,-0.7,1.8,2470.366,13.35,0.038,79.6
2020-07-05T09:31:03,42.805,6.029,0.045,-0.01,0.023,107.0,108.0,102.0,13.3,1505.4,325.9,-0.7,1.8,2470.312,13.35,0.046,102.5
2020-07-05T09:34:03,42.805,6.029,0.033,0.0,0.033,104.0,106.0,101.0,13.4,1505.4,327.1,-0.7,1.8,2470.297,13.35,0.033,90.0
2020-07-05T09:37:03,42.805,6.029,0.054,0.012,0.019,104.0,107.0,102.0,13.3,1505.4,326.1,-0.7,1.8,2470.333,13.35,0.055,77.5
2020-07-05T09:40:03,42.805,6.029,0.027,0.008,0.007,108.0,107.0,102.0,13.4,1505.4,327.2,-0.7,1.8,2470.325,13.35,0.028,73.5
2020-07-05T09:43:03,42.805,6.029,0.036,0.003,0.016,104.0,108.0,100.0,13.3,1505.4,324.3,-0.7,1.8,2470.333,13.35,0.036,85.2
2020-07-05T09:46:03,42.805,6.029,0.012,-0.011,0.034,104.0,107.0,101.0,13.4,1505.4,325.4,-0.7,1.8,2470.278,13.35,0.016,132.5
2020-07-05T09:49:03,42.805,6.029,0.022,-0.007,0.014,103.0,107.0,102.0,13.4,1505.4,327.1,-0.7,1.8,2470.3,13.35,0.023,107.6
2020-07-05T09:52:03,42.805,6.029,0.052,0.008,0.042,104.0,106.0,102.0,13.4,1505.4,328.2,-0.7,1.8,2470.28,13.35,0.052,81.3
2020-07-05T09:55:03,42.805,6.029,0.024,-0.001,0.023,104.0,109.0,103.0,13.4,1505.4,323.9,-0.7,1.8,2470.29,13.35,0.024,92.4
2020-07-05T09:58:03,42.805,6.029,0.036,0.006,0.054,105.0,107.0,101.0,13.4,1505.4,327.2,-0.7,1.9,2470.319,13.35,0.036,80.5
2020-07-05T10:04:03,42.805,6.029,0.038,0.007,0.029,107.0,106.0,102.0,13.4,1505.3,326.9,-0.7,1.8,2470.356,13.33,0.038,79.6